Theta_e
325 324 324 324 325 326 326 327 326 325 325 324 324 325 323 320 319 322 326 328 325 321 320 321 322 324 325 325 326 325 325 325 325 326 326 326 326 326 327 328 328 328 328 321 316 316 314 314 313 313 314 314 315 315 315 315 317 319 324 326 323 323 324 323 323 321 321 320 318 319 320 320 319 319 319 318 319 319 319 321 321 321 320 325 333 336 332 328
324 325 324 324 324 325 327 327 325 324 324 324 324 324 325 323 320 320 321 326 327 324 321 320 321 322 323 324 325 326 326 326 326 326 325 325 325 326 327 328 327 327 328 321 314 314 315 314 313 314 314 314 315 317 317 317 317 320 324 324 323 324 322 321 319 318 320 320 318 319 320 320 319 319 319 318 319 318 318 320 320 321 320 321 330 334 333 329
319 324 323 323 324 325 327 327 325 324 324 323 323 323 324 324 323 321 320 321 326 326 323 321 321 321 321 322 324 325 326 326 326 326 325 326 326 327 328 326 326 326 328 324 315 314 316 314 313 314 313 314 315 317 319 319 318 318 321 323 324 323 320 318 317 317 319 319 318 319 320 320 319 319 318 318 319 318 318 319 319 321 320 320 326 331 331 330
315 321 323 324 326 326 326 327 325 324 323 322 321 321 322 323 323 323 321 319 322 326 326 323 323 322 321 322 324 325 325 326 326 326 325 326 327 328 326 325 326 326 326 324 316 314 316 314 313 313 314 314 314 317 318 318 319 318 320 322 322 320 319 318 316 317 318 319 319 319 319 319 319 318 318 318 318 318 318 318 318 320 320 319 321 325 327 328
316 320 323 324 325 326 326 326 325 324 322 321 320 320 320 321 321 322 322 320 319 322 326 326 325 324 323 322 324 324 325 327 326 325 326 326 328 328 325 324 326 324 322 321 317 315 316 314 312 312 313 314 314 316 317 318 319 319 320 320 318 318 318 316 316 316 318 319 319 319 319 319 318 318 318 318 318 318 318 318 318 319 320 319 318 320 321 323
314 319 323 324 324 325 326 326 324 323 322 321 320 319 320 319 320 320 321 321 319 318 323 327 328 327 324 323 324 324 325 327 322 319 324 327 327 327 326 325 325 322 318 320 318 316 316 313 311 312 313 313 313 315 317 318 319 319 320 318 317 317 316 315 316 316 317 318 319 319 318 318 317 317 318 317 317 317 317 318 317 318 319 319 317 316 318 320
314 318 322 323 325 325 325 325 323 323 322 322 321 319 319 319 319 319 319 320 319 317 320 327 329 326 324 323 324 324 324 326 321 316 319 325 327 326 325 324 326 322 317 319 319 315 316 312 311 312 313 313 313 315 316 317 318 318 319 318 316 316 315 315 315 315 317 317 318 319 318 318 317 317 317 318 317 316 317 317 317 319 319 320 318 315 316 317
317 320 323 323 325 325 324 324 323 322 322 321 321 319 319 318 318 318 318 319 319 317 320 326 327 324 323 323 324 323 323 325 325 317 315 324 325 323 323 323 325 322 316 318 319 317 316 313 311 312 312 313 313 314 315 316 317 317 317 317 316 315 314 314 314 315 315 316 316 317 317 316 316 316 316 317 317 316 316 315 317 321 322 321 319 317 316 316
318 322 324 323 324 325 324 325 323 321 321 320 321 320 319 318 317 318 317 319 319 317 321 326 326 324 323 323 324 323 323 325 323 315 314 322 323 321 322 323 323 318 314 317 318 317 315 313 312 312 312 313 313 314 315 316 317 316 317 317 316 314 314 314 314 314 314 315 315 316 316 316 315 315 316 316 316 316 316 315 315 320 323 323 319 316 315 316
316 319 323 324 324 325 324 324 322 321 321 321 321 320 320 319 317 317 317 318 318 317 322 326 325 324 324 323 322 323 323 325 322 313 314 320 321 320 321 323 321 314 312 316 317 315 314 313 313 312 312 313 313 314 315 316 316 316 317 316 316 314 314 314 314 314 314 315 315 316 316 315 315 315 316 316 316 316 317 316 314 316 320 323 321 317 314 315
316 317 322 324 324 324 324 322 321 322 322 321 321 320 320 319 318 317 317 318 318 319 323 326 325 324 324 322 321 323 322 323 322 314 312 319 320 318 319 321 320 315 313 315 316 315 314 314 312 311 313 313 313 313 315 315 315 316 316 315 315 315 314 314 315 314 314 315 314 316 316 314 314 315 316 316 316 316 316 316 315 315 315 319 322 321 317 316
316 316 321 324 325 324 324 322 321 321 321 321 321 320 319 319 319 317 317 318 319 321 324 326 325 323 322 321 321 323 320 319 322 317 312 316 319 318 317 319 318 316 315 314 314 315 314 313 311 312 312 312 312 313 314 315 315 316 316 316 315 315 315 315 315 314 315 315 315 315 316 316 315 316 316 316 316 316 316 315 315 315 315 316 319 321 319 317
316 317 321 324 325 324 323 322 321 321 321 320 321 320 319 319 319 318 318 318 320 323 325 326 324 321 319 318 320 323 320 317 320 319 314 312 316 318 318 318 317 315 315 313 312 313 312 311 311 312 311 312 312 312 313 314 315 316 315 316 316 316 316 315 315 314 315 315 315 316 317 318 317 316 316 316 316 315 315 316 316 315 316 317 317 318 316 316
317 319 322 324 324 323 322 321 321 321 320 320 321 320 319 319 319 318 318 317 319 322 325 325 322 319 318 318 320 322 319 316 317 318 317 314 313 315 316 317 315 313 313 312 311 312 310 310 312 312 311 312 312 312 313 314 315 315 315 316 318 318 316 315 315 314 315 314 314 315 317 319 317 316 316 315 315 314 314 316 317 317 316 318 318 318 316 315
318 320 322 324 323 322 321 321 321 320 320 321 320 320 319 318 318 318 317 317 317 320 324 322 318 317 316 316 319 319 316 313 315 316 317 318 314 312 313 314 315 313 313 313 312 311 310 311 312 311 312 312 312 313 313 314 314 314 315 316 318 318 316 316 315 315 316 315 313 314 317 318 317 315 315 315 315 314 315 315 316 317 317 317 318 319 319 317
320 320 322 323 322 321 321 321 320 320 320 320 320 319 318 318 318 317 317 317 316 320 321 316 314 316 315 316 317 316 315 313 313 313 314 317 315 311 312 313 314 314 314 314 313 311 311 312 312 311 312 312 312 313 313 315 315 314 315 316 318 317 316 316 315 315 315 314 313 314 316 317 316 314 314 315 314 314 315 315 315 317 317 317 317 317 318 318
320 321 322 323 322 321 321 320 320 319 320 320 319 318 318 317 317 317 316 317 317 317 316 311 312 315 316 315 315 314 315 314 313 313 312 313 313 311 311 312 312 313 313 313 312 311 311 312 311 312 313 312 312 313 314 315 315 315 315 317 318 316 316 316 315 315 315 315 314 314 315 317 316 314 313 314 314 314 314 315 316 316 316 318 318 318 316 316
321 322 323 323 322 321 320 319 319 319 320 319 318 317 317 317 316 316 316 316 315 312 310 310 312 317 318 316 315 314 315 315 314 313 312 311 311 311 311 311 311 311 311 311 311 311 311 311 311 313 313 312 312 312 314 315 315 315 316 316 316 316 316 317 316 315 316 316 316 315 314 315 316 315 313 313 314 314 314 314 315 315 316 317 317 317 316 315
322 322 323 323 322 320 319 319 319 319 319 318 318 317 316 316 315 316 316 314 312 311 312 310 312 319 320 317 317 315 315 316 315 313 312 312 311 311 311 310 310 311 311 311 311 311 311 312 312 312 313 312 311 311 313 315 315 316 317 316 316 317 316 316 316 315 315 316 316 316 314 314 315 315 314 313 313 314 314 314 315 315 315 315 316 316 316 315
322 322 323 323 321 320 319 319 319 318 318 317 317 316 316 315 315 316 315 313 313 315 315 311 313 317 317 318 318 315 314 316 316 313 313 312 311 312 311 311 311 311 311 311 312 311 311 314 313 312 312 312 312 312 313 314 315 315 316 315 316 318 316 315 315 313 313 315 316 316 316 316 316 316 316 313 313 314 314 314 315 315 315 315 315 315 315 315
323 322 323 322 321 319 319 318 317 316 316 317 317 315 315 315 316 317 314 313 313 314 313 311 314 316 316 317 316 315 314 314 315 314 313 312 311 312 311 311 311 311 311 312 313 312 312 314 313 311 312 312 312 313 313 314 315 315 316 315 316 318 316 314 315 313 313 315 316 316 316 316 316 317 316 314 313 313 314 314 314 315 315 315 315 314 315 315
322 322 322 321 320 319 318 317 316 316 316 317 316 315 315 315 316 316 315 314 313 312 312 311 314 314 315 316 315 316 315 313 314 314 313 312 312 312 312 311 311 311 312 312 313 313 312 313 313 312 312 313 313 313 313 314 315 316 317 316 316 318 316 314 314 313 313 314 316 318 317 316 317 317 316 314 314 314 314 315 315 315 315 315 315 314 315 315
322 322 321 320 319 318 317 316 316 317 317 316 316 315 315 315 315 316 315 314 312 312 311 312 313 313 314 315 314 315 314 312 314 314 313 312 312 312 312 311 311 312 312 312 313 313 313 313 313 312 313 313 314 313 314 314 315 317 317 315 317 318 317 315 314 314 313 313 314 317 317 317 316 317 317 315 315 315 315 316 315 316 315 315 315 315 315 315
322 321 320 319 318 317 316 316 317 317 316 316 316 315 315 315 315 316 315 312 311 311 311 312 313 312 313 314 314 315 314 313 315 314 312 312 312 312 312 312 311 312 312 312 313 313 313 312 311 312 314 314 314 313 315 315 314 317 319 318 318 319 318 317 315 313 313 314 314 314 315 316 315 315 316 315 316 315 315 316 316 316 316 315 315 315 316 316
322 321 320 318 317 316 316 316 317 317 316 316 315 315 316 315 315 315 314 313 312 311 311 313 313 312 312 312 313 314 313 313 314 313 312 313 313 312 312 312 312 312 313 313 313 313 313 310 310 313 314 315 315 314 316 317 314 315 320 320 318 317 318 318 316 314 314 316 316 314 315 319 319 315 315 315 316 316 315 316 316 317 317 315 315 315 315 316
321 320 319 317 316 315 316 316 316 316 316 315 314 315 315 314 315 315 314 315 314 311 311 313 313 312 312 312 312 313 312 313 314 313 312 313 313 312 312 312 312 312 312 313 313 314 312 308 310 316 316 317 317 314 316 319 313 313 320 322 318 319 322 320 319 318 316 317 316 314 316 320 320 316 316 317 318 318 316 316 316 317 317 316 315 315 315 316
321 319 317 316 315 315 316 316 316 315 316 315 314 315 315 314 315 316 316 317 316 313 311 312 313 313 313 311 311 312 313 313 314 313 312 313 313 312 312 312 312 312 313 313 313 314 310 309 313 317 317 318 317 314 316 317 314 316 322 324 320 321 324 323 322 320 318 318 316 315 316 317 318 318 318 318 318 318 317 318 317 316 316 316 315 315 314 314
319 318 317 316 315 315 316 316 315 315 315 315 314 314 314 313 314 315 315 317 317 313 311 310 311 314 313 311 311 312 313 314 314 313 312 313 313 312 312 312 312 313 312 312 314 313 312 313 315 316 317 317 316 318 321 318 315 320 323 323 321 321 324 323 321 320 318 317 318 318 316 316 319 320 319 318 317 317 318 318 317 315 315 316 315 316 315 315
318 318 317 315 315 316 316 316 316 315 314 314 314 314 313 312 313 314 314 315 313 311 311 310 311 313 312 311 312 312 312 313 314 313 312 313 313 311 312 312 312 313 312 313 316 316 313 312 313 316 317 316 317 319 324 323 318 318 320 321 322 322 323 321 321 319 316 317 321 321 317 315 320 321 317 317 317 318 318 317 316 315 315 316 315 316 316 315
318 318 316 315 316 315 315 315 314 314 313 313 314 313 312 312 312 313 313 313 312 311 310 310 311 312 312 311 311 311 312 312 312 312 312 312 312 311 313 313 312 313 315 318 318 313 310 309 311 314 314 313 315 314 317 321 318 317 320 321 321 321 319 319 320 318 317 320 321 321 318 315 318 322 318 317 318 318 318 317 317 316 315 316 315 315 315 314
317 317 316 315 315 315 314 314 314 313 313 313 313 312 311 311 312 313 313 312 313 311 310 310 311 312 312 311 311 311 312 312 311 312 312 312 311 311 313 313 313 315 317 320 319 313 310 310 312 312 309 311 315 314 314 315 315 319 323 321 319 319 318 317 318 316 318 322 318 317 319 317 317 320 318 317 316 316 316 317 319 317 316 316 315 315 314 313
317 316 315 314 315 314 313 314 314 314 313 313 312 310 310 311 312 313 313 312 313 312 310 310 312 312 312 312 312 311 312 313 312 312 312 312 311 311 312 313 313 315 315 317 319 317 315 313 314 313 310 311 316 316 315 314 315 320 321 318 319 319 317 317 318 318 320 320 314 313 317 317 317 317 315 316 315 315 315 314 317 316 315 315 314 313 313 313
317 316 315 314 314 313 313 314 314 314 314 313 311 310 311 311 312 313 312 312 313 312 311 311 312 312 312 312 312 312 314 314 312 311 312 312 312 312 313 314 314 314 314 316 317 318 318 315 315 315 311 311 315 315 315 314 315 318 318 317 320 319 317 317 318 318 318 317 314 314 315 317 317 315 315 317 313 314 314 313 316 316 315 315 313 312 312 313
315 315 314 314 313 313 314 313 313 314 314 312 310 310 312 312 312 313 313 312 313 311 310 311 312 312 312 312 312 312 314 314 312 312 313 313 312 312 313 313 314 314 314 316 316 316 317 315 315 316 313 313 315 315 317 317 315 317 319 319 319 319 318 318 318 320 321 318 313 312 316 319 318 317 317 315 312 313 313 313 314 314 314 314 311 311 312 314
315 314 313 313 313 314 314 313 313 314 313 311 310 311 312 312 311 312 313 313 312 311 311 312 312 312 312 313 312 312 314 314 313 312 313 313 312 312 313 312 313 314 314 315 315 314 315 316 315 314 312 313 315 316 317 317 315 316 319 320 320 320 322 320 317 318 321 319 316 315 318 320 318 317 317 313 312 313 311 312 313 313 313 312 311 312 313 314
314 313 313 313 313 313 314 313 313 313 311 310 310 311 312 311 312 313 313 313 312 311 312 312 313 312 312 313 313 313 315 315 314 313 313 313 313 313 313 313 313 313 314 315 315 314 314 316 315 312 312 312 312 313 314 314 315 317 318 319 320 321 323 321 315 314 315 317 319 318 317 318 315 315 317 315 314 313 311 311 311 311 313 312 311 312 313 315
313 312 312 312 313 313 313 313 313 311 310 310 310 311 312 313 315 314 313 313 311 312 312 312 313 312 312 313 313 314 316 316 314 314 313 313 314 314 313 314 313 313 314 315 315 315 316 316 314 314 316 312 308 310 312 310 313 318 319 318 317 317 319 318 314 315 316 315 317 317 316 316 315 316 317 316 314 314 314 312 310 312 313 312 312 312 313 315
312 312 312 312 312 312 312 313 312 310 311 314 312 311 312 314 317 314 312 313 312 313 312 312 313 313 312 314 313 314 316 315 314 314 314 313 314 315 313 314 314 313 314 314 315 317 318 318 315 314 315 313 309 312 314 311 311 315 316 315 316 318 318 315 313 317 319 315 315 317 315 315 317 316 316 316 316 316 316 314 313 314 314 312 313 313 313 315
312 312 312 312 312 312 312 312 311 310 313 315 313 313 315 316 315 313 312 313 313 313 313 313 313 312 314 315 314 314 315 314 314 315 315 314 314 315 313 314 315 314 313 313 317 320 318 321 318 313 313 314 313 314 315 314 312 312 313 314 317 318 317 317 316 316 319 316 316 317 316 320 324 319 315 317 317 316 315 315 314 312 312 313 313 313 314 314
312 312 312 312 311 311 311 311 310 311 313 314 312 314 317 317 315 312 313 314 314 313 313 314 314 313 315 315 314 315 314 315 315 315 316 314 314 314 314 314 315 314 314 315 319 319 316 321 321 314 312 314 315 315 315 315 313 312 314 314 314 314 314 317 318 316 317 316 316 315 316 324 325 316 315 316 317 318 316 317 316 312 312 314 314 314 314 314
312 312 312 311 311 311 310 311 311 311 312 313 312 316 316 315 315 314 313 313 314 315 314 314 314 313 315 315 315 314 314 315 315 314 316 314 313 314 314 314 314 314 315 317 319 318 315 319 319 314 313 315 316 316 314 315 316 315 314 313 314 314 315 317 317 317 316 315 317 315 316 327 324 314 316 315 314 317 314 313 316 313 313 314 314 314 313 314
312 312 312 311 311 310 310 311 311 310 312 312 313 316 315 314 316 316 315 314 315 317 316 315 314 314 315 315 315 315 314 315 315 315 316 314 313 315 314 314 314 313 314 315 318 319 318 319 317 314 315 315 315 313 309 312 318 317 314 316 316 314 314 316 317 319 317 313 315 314 316 329 326 314 313 312 310 310 308 310 314 312 312 313 313 313 313 313
312 312 312 311 310 309 310 311 311 311 312 312 313 315 314 314 316 316 316 315 316 318 317 315 315 315 315 315 315 315 313 314 315 315 315 317 316 314 314 314 313 312 314 315 316 316 318 320 318 315 315 313 313 312 310 312 317 317 316 317 317 315 315 316 318 321 319 316 316 313 314 324 324 314 309 308 307 307 306 308 311 311 311 311 311 313 313 314
312 312 311 311 310 309 310 311 311 311 312 312 314 315 315 316 316 315 316 316 317 318 317 316 316 315 317 316 315 315 313 314 317 315 315 319 317 312 312 313 313 313 313 314 315 314 316 319 318 317 317 316 315 315 314 315 314 315 317 315 315 319 318 316 316 316 317 321 321 316 315 321 322 316 311 310 309 308 307 307 309 310 311 310 312 314 313 314
311 311 311 310 310 310 311 312 311 311 312 313 314 315 316 316 315 315 317 318 318 317 317 318 317 317 319 319 316 315 314 315 318 317 318 320 317 312 312 313 313 312 312 313 313 313 318 320 317 318 318 317 317 316 317 316 314 315 319 316 315 320 319 317 317 315 317 321 320 316 318 320 317 314 313 314 314 312 310 308 308 310 311 311 313 314 314 314
311 312 311 310 310 311 312 313 312 311 311 312 312 314 315 315 313 314 316 317 317 317 318 318 318 317 318 318 317 316 315 317 319 319 319 319 317 314 313 312 312 311 312 313 311 314 321 319 315 316 316 314 315 315 317 318 315 315 318 318 317 318 318 317 317 317 318 320 320 319 319 318 316 315 313 314 316 315 312 309 308 310 311 312 314 314 314 314
311 311 311 311 311 311 312 312 313 311 311 311 311 312 313 314 314 314 314 314 315 317 319 318 316 317 317 317 317 316 316 319 320 318 318 318 315 313 312 312 312 310 311 312 311 317 322 318 315 317 316 316 318 318 318 318 316 315 316 317 317 317 317 317 317 316 317 317 318 319 319 317 316 316 315 316 318 316 312 309 309 310 311 313 314 314 312 312
311 311 311 311 311 312 312 312 313 312 311 311 311 312 313 313 313 313 315 314 314 316 318 318 316 316 316 316 317 316 316 318 318 318 318 316 313 313 312 312 311 309 311 312 312 316 318 315 317 318 315 318 323 322 320 318 316 316 315 315 315 315 316 317 316 315 316 316 315 316 318 317 314 315 317 317 315 314 312 310 310 310 311 313 314 313 312 311
310 311 310 311 312 312 312 312 312 312 312 311 311 312 312 312 312 313 315 315 315 316 317 316 316 316 316 317 316 316 316 316 316 317 317 314 312 314 315 313 311 309 311 314 313 314 314 315 317 316 314 318 320 320 321 320 318 317 317 317 316 315 315 315 315 314 315 316 315 315 317 316 315 316 318 315 313 312 312 311 311 311 311 313 314 312 311 311
310 311 310 311 312 311 311 312 312 312 311 311 312 312 312 312 312 313 315 314 314 316 316 315 315 316 317 317 316 316 316 315 316 317 316 313 312 314 314 313 312 310 310 314 313 312 314 317 317 315 315 316 316 319 321 321 320 320 320 320 319 317 316 315 314 314 314 315 315 315 316 315 315 316 315 313 313 312 311 311 311 311 312 313 313 312 311 311
308 309 310 311 312 311 310 311 312 312 311 311 312 312 312 312 312 313 315 314 313 314 315 315 316 316 317 317 316 316 316 316 316 315 313 313 312 312 314 313 311 311 312 314 314 312 314 317 317 316 316 315 316 318 319 319 319 318 319 322 322 319 317 315 314 314 314 314 315 315 316 314 313 314 314 313 312 310 311 311 311 311 312 313 313 312 311 311
308 309 310 311 312 311 310 311 312 312 311 310 311 312 312 312 313 314 314 314 315 315 314 315 316 315 316 317 316 316 315 315 315 313 312 312 311 311 313 312 309 311 313 313 313 313 314 316 316 316 317 316 316 318 318 318 318 316 315 318 320 319 317 315 315 315 314 314 315 315 314 313 313 315 317 315 311 309 310 311 311 311 312 313 313 312 311 312
Wind_Speed
48 51 49 52 54 51 51 49 45 46 46 46 45 44 42 39 38 37 37 38 38 38 36 35 32 29 27 25 23 22 22 23 23 24 25 26 24 23 21 20 20 17 12 8 9 10 8 7 3 9 7 7 7 8 7 7 6 3 1 2 3 3 3 3 3 4 7 6 6 14 16 10 8 9 8 7 7 9 11 9 8 8 6 9 13 15 15 19
44 50 50 52 55 51 51 49 46 45 45 45 44 44 44 42 39 36 36 38 38 38 36 35 34 32 29 25 24 22 21 21 22 26 28 26 25 23 21 19 17 16 15 12 7 9 11 6 3 9 9 8 7 7 6 6 6 5 2 2 4 3 1 3 6 6 6 10 10 13 15 10 11 13 11 8 7 10 9 8 10 8 8 11 14 17 16 18
43 48 50 52 54 52 51 49 46 45 45 44 43 44 44 44 41 38 36 37 38 38 37 35 34 33 31 27 24 21 19 18 21 28 28 25 23 23 23 20 17 16 16 18 9 8 14 7 1 7 9 9 9 7 7 5 5 7 4 2 4 3 3 8 11 8 8 14 13 12 14 10 13 16 12 9 9 11 8 10 14 12 13 14 16 16 16 19
45 47 51 52 55 54 51 49 47 45 45 44 42 42 42 43 43 40 38 36 37 37 37 35 34 33 31 29 24 21 19 14 21 31 27 23 22 22 23 19 16 16 16 20 14 9 15 9 3 6 9 9 11 9 7 7 6 5 5 2 4 1 4 7 11 9 9 13 14 13 12 8 13 14 11 10 8 7 10 14 17 17 17 17 18 17 16 18
46 46 50 52 54 53 49 49 48 46 45 44 41 41 41 42 43 42 40 37 36 36 37 35 33 32 31 29 25 22 17 6 14 25 24 22 23 23 24 19 15 15 15 20 17 12 14 9 4 6 6 7 9 8 7 11 10 3 6 4 6 6 3 5 8 10 8 10 13 13 9 9 12 10 12 12 5 4 8 14 16 18 19 17 18 19 17 18
48 47 49 52 54 54 50 48 48 46 45 43 40 39 40 40 41 42 41 38 36 35 36 36 33 32 30 28 25 22 18 7 5 9 16 22 24 26 27 22 18 15 16 20 18 16 15 7 4 6 4 4 8 7 8 12 12 3 7 5 4 6 3 3 7 11 8 8 11 11 9 11 10 6 11 12 5 6 8 11 13 15 18 16 17 18 17 17
49 48 50 53 54 53 51 48 48 47 44 41 38 38 38 39 40 41 41 39 36 35 35 35 33 31 30 27 24 21 20 18 7 7 7 20 24 27 28 25 21 19 18 19 21 23 18 7 5 10 6 3 7 9 10 9 10 6 6 4 3 5 4 3 8 11 8 7 8 10 10 10 9 5 9 13 6 7 7 9 12 11 15 16 16 16 15 15
47 49 52 54 53 52 52 49 48 45 41 38 36 36 37 38 39 40 41 39 36 34 34 35 32 31 30 28 25 19 20 28 17 9 5 20 25 25 26 24 22 21 20 18 21 27 22 11 9 12 7 5 10 9 8 5 5 8 5 2 4 4 4 4 7 10 8 6 7 9 9 8 9 5 7 14 9 7 5 6 11 11 14 16 14 14 14 14
45 48 53 55 55 54 53 49 46 43 39 36 34 35 36 37 38 39 39 38 36 34 34 34 31 30 28 27 23 15 22 31 18 6 6 21 26 25 25 24 23 21 20 19 21 25 22 15 12 13 9 9 13 10 7 4 2 7 4 3 5 5 5 5 6 8 6 5 7 7 6 5 6 4 5 14 12 10 9 8 10 12 14 16 13 13 14 15
47 47 53 57 56 54 51 48 45 41 38 35 33 34 35 35 36 37 37 37 35 33 34 32 30 29 27 26 19 10 19 27 18 5 5 20 27 26 24 24 25 23 20 21 23 21 20 18 14 12 12 11 11 9 6 6 3 5 4 7 6 5 5 4 5 7 6 5 7 5 4 5 3 3 3 11 14 12 12 11 11 11 13 15 14 14 14 16
50 48 52 57 57 54 50 48 45 41 38 35 32 33 34 34 34 34 35 35 34 33 33 31 30 29 28 27 19 11 14 19 20 11 4 18 28 24 23 24 24 23 21 24 25 21 21 21 15 10 10 7 7 8 6 7 4 1 7 7 5 4 4 4 5 9 6 4 8 4 3 5 3 3 4 11 17 16 15 14 14 12 12 14 15 15 15 16
53 50 53 57 57 56 54 50 45 41 38 35 32 32 33 33 32 33 32 32 33 33 32 31 29 28 27 24 19 17 12 11 20 19 7 14 26 24 21 22 22 23 23 24 24 24 22 21 17 11 9 6 5 5 5 7 6 3 6 3 3 3 2 5 5 8 6 3 9 3 2 2 3 7 11 13 16 16 15 14 15 15 14 14 15 16 16 17
55 51 53 57 57 57 56 52 46 42 39 36 33 33 34 32 31 31 31 32 33 33 33 31 28 28 24 17 20 21 13 9 16 23 15 12 18 22 21 21 22 22 23 22 22 24 23 21 18 13 13 9 5 6 7 6 6 5 6 3 4 2 3 6 5 7 5 4 9 4 0 4 8 15 17 15 15 15 16 14 14 15 15 15 15 16 16 17
57 52 54 58 59 58 55 51 46 43 39 37 35 34 33 31 30 29 30 31 32 33 32 29 28 28 21 13 19 23 15 9 13 22 24 15 12 17 21 22 22 21 20 20 20 20 20 19 18 13 12 10 6 8 8 4 5 4 5 4 4 2 3 6 8 9 4 3 10 4 0 5 4 11 16 16 15 14 16 16 15 14 16 17 16 17 17 17
57 54 55 58 61 59 54 50 47 43 40 38 36 34 32 30 29 27 27 29 30 32 30 29 31 24 15 11 16 22 17 11 12 16 22 21 16 16 21 24 23 20 18 19 19 16 16 17 17 12 8 9 8 6 4 2 3 3 4 4 4 3 3 3 6 10 3 2 9 4 0 5 1 7 13 16 15 13 14 14 15 14 15 18 18 19 19 18
58 55 57 58 58 57 53 49 46 43 40 38 36 34 32 29 27 25 25 26 27 30 30 32 33 21 9 9 13 21 21 15 12 13 17 21 20 17 21 25 23 21 22 23 21 17 14 14 15 12 7 5 5 4 3 3 3 3 4 3 4 5 3 2 2 7 4 4 7 4 1 3 0 5 10 12 14 14 12 12 14 15 14 16 18 20 20 19
59 57 60 59 54 53 52 49 46 44 40 39 38 34 32 29 27 24 23 24 26 30 33 33 31 17 5 9 12 21 27 22 16 14 14 18 21 18 19 23 22 22 25 24 21 16 12 13 12 8 6 5 4 4 4 5 4 3 4 3 4 6 5 3 1 3 5 4 5 6 3 4 3 7 10 12 13 13 13 13 13 14 15 15 16 18 19 20
60 59 61 60 54 52 52 49 47 45 42 41 38 34 32 29 25 24 24 26 28 26 22 23 23 10 6 17 19 20 28 29 22 16 14 17 19 16 16 20 21 21 19 15 14 14 12 12 10 5 5 6 5 6 5 4 4 3 4 3 4 6 6 5 2 5 8 4 4 6 5 8 5 7 10 13 14 14 15 15 14 13 14 15 16 17 17 19
63 62 62 59 54 53 51 50 50 47 46 42 38 37 33 29 25 22 26 31 31 21 10 24 31 8 3 22 26 18 25 32 25 17 15 18 17 15 14 16 22 23 16 8 9 14 13 8 8 6 5 6 7 8 7 5 5 6 7 6 5 5 4 3 2 3 6 4 5 6 7 9 8 6 9 14 16 16 16 15 15 15 15 16 17 18 18 19
65 64 62 58 55 55 51 52 52 49 48 44 45 44 34 31 20 15 29 35 41 30 12 33 41 7 4 19 26 20 22 26 24 20 16 18 20 17 16 16 20 19 12 7 6 13 14 6 5 7 6 7 8 9 9 6 5 5 8 8 7 5 2 2 2 1 1 2 6 7 7 8 9 7 9 17 17 15 16 16 16 17 17 18 19 19 20 21
66 65 62 59 57 56 53 53 50 50 50 48 55 47 38 42 19 18 40 35 43 32 5 30 41 7 7 25 29 26 24 19 20 21 17 19 22 17 15 16 13 9 8 10 8 10 12 6 5 8 7 8 9 9 10 7 6 6 4 7 6 5 2 2 2 2 1 1 4 7 7 8 8 7 8 15 15 13 18 17 17 20 20 21 21 21 21 21
66 65 62 60 59 57 54 53 49 52 52 50 56 44 47 51 14 24 45 20 28 23 3 31 39 10 14 25 27 28 27 20 17 21 20 22 22 15 14 14 8 6 8 10 7 6 8 6 6 11 10 7 7 10 8 4 3 6 2 3 4 3 3 2 2 1 1 1 2 2 4 8 8 8 8 10 13 16 22 22 22 23 23 23 23 22 21 21
66 64 62 61 61 57 54 53 51 54 53 53 54 43 49 39 1 21 39 14 14 13 5 36 33 13 18 20 25 27 24 22 18 22 25 25 22 17 16 12 7 8 9 9 7 5 5 5 6 10 10 6 4 8 7 2 1 3 3 0 2 3 3 0 1 1 0 1 1 3 3 6 6 6 7 13 20 19 21 24 24 24 25 26 25 23 22 22
65 62 61 63 61 57 55 54 53 56 54 53 49 40 43 26 3 27 32 13 9 5 13 37 25 16 20 16 24 23 18 21 20 24 29 27 23 17 16 13 9 8 8 10 10 7 6 3 3 5 6 6 4 4 6 4 2 4 4 2 1 2 3 2 3 3 2 1 1 3 4 5 6 8 7 13 21 20 20 23 23 24 25 24 23 23 23 23
64 62 62 64 60 56 56 55 56 56 51 50 44 36 35 24 23 37 25 9 8 5 14 29 18 15 19 18 24 21 15 17 19 27 31 29 26 16 12 15 11 7 9 11 9 7 5 3 4 5 5 6 5 4 5 5 3 4 4 3 1 1 6 7 5 5 2 2 2 2 1 5 6 9 10 9 11 14 17 19 20 24 25 24 25 25 25 24
64 64 65 64 60 59 58 53 55 54 47 47 41 33 33 32 35 34 17 5 5 6 10 20 18 14 16 20 25 20 12 11 16 29 33 29 27 18 10 12 8 6 11 9 5 3 2 1 2 5 7 7 6 5 5 6 4 3 4 3 2 5 7 8 6 4 3 2 2 2 4 5 4 5 8 8 8 9 11 12 16 22 24 26 29 29 28 28
66 67 67 64 62 64 60 51 54 54 48 47 40 34 37 39 35 25 12 3 4 8 9 12 16 15 16 22 27 17 6 11 15 25 36 31 26 20 10 9 6 6 10 7 2 1 3 3 1 3 6 5 5 4 5 7 5 3 3 2 3 8 7 7 6 3 1 1 2 2 3 2 4 5 5 4 7 7 7 8 12 19 24 27 30 30 30 30
68 68 67 64 64 64 57 52 56 55 51 49 41 38 43 41 29 15 7 3 6 9 8 9 11 15 18 22 25 12 7 19 14 15 35 31 22 16 6 8 9 5 7 8 6 2 2 5 5 6 6 4 5 2 4 8 4 3 1 3 2 5 6 6 5 2 1 3 2 4 2 0 4 6 3 2 4 5 7 9 11 18 24 26 26 26 25 26
70 68 65 64 63 56 48 52 56 50 47 47 41 40 44 35 18 5 2 5 6 7 9 12 10 14 20 20 21 12 12 21 10 9 28 25 17 12 4 9 11 5 4 4 5 1 1 4 5 6 6 4 4 1 1 5 4 4 3 4 5 4 4 4 3 3 2 1 4 6 5 3 5 6 4 2 4 6 8 8 8 16 23 22 20 20 19 21
70 67 65 66 62 50 42 47 49 45 47 48 42 41 38 23 9 5 6 6 5 6 11 14 12 17 21 15 14 14 10 11 10 16 20 16 15 12 7 10 11 7 4 6 5 1 1 2 2 2 3 3 5 3 3 3 6 6 5 5 6 5 4 2 1 3 2 3 5 5 6 4 4 5 5 4 4 6 6 5 2 7 14 16 16 16 16 18
69 67 67 67 60 49 45 46 43 46 52 48 41 38 27 10 3 5 8 7 7 7 10 12 13 17 21 15 11 14 9 5 13 20 15 10 11 10 8 9 7 7 3 3 5 1 2 3 1 2 2 3 5 4 5 3 6 6 4 4 4 3 4 4 2 2 1 4 3 3 2 1 3 6 4 3 3 4 4 3 3 6 11 13 13 12 13 13
68 66 66 64 55 46 47 48 45 50 55 49 43 34 17 6 3 3 7 9 7 7 9 13 16 17 20 17 11 12 9 6 12 16 12 10 8 8 8 6 5 5 4 4 3 2 3 2 1 2 0 4 4 4 4 4 2 3 4 6 4 1 2 1 2 2 3 4 3 3 3 1 5 7 7 7 4 5 5 4 7 10 12 12 11 9 9 10
67 65 64 59 48 41 43 46 49 54 53 48 41 26 9 6 7 5 7 7 7 10 12 15 18 18 17 15 10 11 9 7 11 13 11 10 7 7 8 6 8 6 4 6 4 3 2 1 2 3 1 5 4 4 4 1 1 4 5 6 4 4 2 2 3 2 3 3 3 3 2 2 4 5 10 14 8 6 8 7 10 13 14 12 9 6 6 7
65 63 60 53 43 38 42 47 52 56 52 43 31 15 8 9 9 9 8 5 6 13 14 14 17 18 16 12 10 11 8 7 12 13 10 10 8 8 9 10 12 8 4 6 4 5 5 2 3 3 1 4 4 2 4 5 4 5 5 5 4 4 3 4 4 3 4 1 3 3 1 3 3 3 7 9 4 6 7 7 10 12 12 11 7 5 6 7
63 61 56 47 39 36 40 48 53 55 51 37 18 7 10 11 9 10 9 5 7 12 15 17 18 17 13 9 10 12 7 6 11 11 9 10 10 10 10 10 13 10 6 6 4 5 7 3 1 0 1 3 4 2 1 6 4 3 3 4 3 4 3 3 2 3 4 1 1 1 2 4 5 5 7 4 6 4 4 7 10 11 12 10 6 6 8 8
61 58 50 43 39 35 40 50 52 53 50 32 11 7 10 8 7 8 8 8 11 14 18 18 14 13 11 7 10 12 6 5 11 9 7 10 9 10 10 9 13 13 8 6 4 4 6 2 3 2 3 2 1 1 2 2 2 2 3 3 4 3 5 4 1 0 3 1 3 3 3 5 3 7 7 4 4 2 4 7 10 12 13 12 8 8 10 9
60 54 46 42 42 39 42 51 52 52 44 22 9 11 9 5 4 6 8 10 14 17 18 14 10 12 13 9 10 14 8 7 12 8 7 9 8 11 12 10 14 16 11 8 4 3 6 2 3 1 2 1 1 1 2 3 2 3 4 3 3 2 3 3 1 1 1 2 2 4 5 5 3 4 3 2 3 5 5 7 8 10 12 13 10 10 11 10
58 50 43 42 43 43 44 47 50 49 31 9 9 13 8 4 3 6 13 14 16 17 14 11 9 10 13 11 10 14 12 9 11 8 8 8 6 11 14 10 13 17 13 9 4 3 6 4 2 2 1 1 2 1 2 3 3 3 3 2 3 1 1 1 2 2 2 2 3 3 5 4 4 4 2 2 7 7 6 6 6 8 11 13 12 13 13 12
54 41 32 38 43 41 41 45 48 40 17 6 10 10 5 4 4 12 22 19 14 15 11 9 10 8 10 11 11 14 13 10 11 8 7 6 4 10 16 9 10 17 15 9 4 3 5 4 1 2 1 1 2 0 4 2 1 2 1 2 2 2 3 3 3 3 2 3 3 3 2 3 5 6 6 7 7 8 7 6 6 8 13 14 14 16 16 13
49 27 19 40 45 38 40 43 38 23 8 8 10 5 3 4 4 17 31 25 12 9 9 9 11 10 10 11 11 12 10 9 11 7 5 7 4 7 14 11 9 14 12 6 4 4 3 3 3 0 2 1 1 2 4 5 4 2 1 2 2 1 2 1 2 2 3 2 3 2 2 5 5 3 3 4 3 3 5 6 6 7 11 13 15 18 18 15
41 15 15 42 44 38 44 35 20 12 7 9 7 3 4 5 6 15 28 29 13 3 7 11 12 11 11 12 12 11 8 8 11 8 4 8 7 4 8 11 12 12 8 5 4 3 1 3 5 3 1 2 1 1 1 1 4 4 4 5 6 4 4 2 2 2 2 2 3 3 3 6 5 2 3 2 4 3 3 4 5 6 9 11 14 17 18 17
28 7 20 46 45 46 45 21 10 12 8 7 4 2 6 8 9 11 17 23 13 2 5 10 10 10 10 10 11 12 10 8 10 9 5 8 9 4 7 16 21 18 11 5 3 2 3 5 5 3 2 2 1 1 0 2 1 2 1 3 5 5 4 5 4 3 2 1 1 2 3 6 5 2 4 3 2 2 2 4 5 6 8 10 13 16 17 16
17 13 29 45 47 51 37 10 9 11 4 4 4 4 5 6 8 9 10 13 9 3 5 7 9 10 9 9 11 12 12 9 10 12 7 7 7 2 7 20 24 17 10 5 3 3 4 5 4 3 2 1 2 1 1 2 1 1 2 3 5 5 6 5 4 3 3 2 2 2 4 6 5 3 3 3 2 1 3 4 6 6 7 9 13 16 16 15
22 28 34 38 44 45 25 8 12 13 6 6 4 3 3 2 6 10 10 9 6 5 7 6 9 10 6 8 11 12 13 8 7 10 6 6 5 2 5 23 25 14 8 8 9 8 5 3 5 5 2 2 2 2 2 3 3 2 2 3 3 3 5 3 1 2 1 4 6 5 5 6 5 4 3 2 3 3 3 4 6 6 6 9 13 15 14 15
25 23 25 34 43 36 15 5 10 12 10 9 7 6 4 3 3 6 9 7 3 5 6 4 8 9 6 7 8 10 13 7 5 8 5 4 3 5 3 22 25 12 6 11 16 13 6 4 5 6 5 5 4 4 4 3 3 0 2 2 3 3 6 4 2 2 3 5 6 5 5 6 5 4 3 3 3 4 4 4 6 7 7 9 14 16 16 18
18 9 12 21 31 28 14 8 6 10 12 11 8 7 7 6 2 3 7 5 2 5 6 3 9 10 7 10 10 10 13 5 4 6 5 5 3 3 2 14 17 10 7 15 23 15 3 2 6 7 8 9 8 6 6 8 7 5 6 8 8 8 8 5 3 4 5 4 4 5 7 7 7 4 4 6 5 5 5 6 8 9 10 12 17 19 19 20
14 10 13 14 17 18 12 10 8 9 14 15 10 8 11 11 5 3 4 1 2 6 4 3 9 10 10 14 11 10 12 6 5 8 8 5 3 2 3 6 8 8 9 16 22 13 3 3 7 7 8 5 2 4 9 11 10 12 14 14 13 12 11 8 6 9 8 5 6 9 9 11 11 7 6 7 6 5 7 10 12 13 14 17 20 21 21 20
10 13 22 24 15 9 9 14 15 13 17 17 9 9 13 13 11 7 2 2 3 5 2 2 8 13 16 16 10 9 11 7 5 9 7 5 4 4 4 6 5 5 6 10 11 6 3 6 7 7 7 2 4 4 6 9 9 9 11 13 13 13 12 12 13 14 10 7 10 13 13 15 13 7 7 8 8 9 10 11 11 12 16 20 22 22 21 19
10 11 17 22 11 2 7 14 15 14 18 17 9 11 17 17 15 11 4 4 4 4 4 6 9 13 15 14 10 10 11 10 8 8 6 6 6 5 3 3 3 2 3 5 3 1 2 5 6 8 7 5 3 5 5 7 5 5 7 9 10 11 13 14 16 17 14 12 14 15 15 14 9 6 8 10 12 12 10 9 9 12 19 23 23 22 22 20
11 11 13 14 6 5 13 13 12 12 13 14 10 10 15 18 18 12 5 8 11 7 7 11 14 14 13 14 12 10 13 14 11 9 9 9 7 5 4 4 3 1 2 3 1 1 1 3 5 7 4 5 4 4 5 7 5 5 6 6 8 11 12 14 15 15 13 13 15 14 13 12 8 7 9 11 12 10 9 11 14 16 21 25 24 22 23 23
12 12 16 14 4 9 17 12 11 13 11 12 11 10 13 16 18 14 4 2 9 11 10 12 14 12 10 13 14 11 14 14 11 15 18 15 13 10 5 6 10 7 2 3 3 2 2 2 3 6 4 6 7 8 7 6 2 3 5 6 10 11 11 12 13 12 11 11 13 12 10 12 9 6 7 9 12 13 13 16 18 18 21 26 25 26 27 26
11 12 19 16 5 9 16 11 11 13 11 13 13 11 13 14 15 15 7 3 3 8 11 13 14 11 9 12 13 11 13 12 13 20 19 14 15 13 9 14 20 15 8 5 4 3 5 4 4 6 6 7 6 8 7 6 4 4 8 10 12 11 10 10 10 11 13 12 10 9 11 13 8 6 7 7 8 12 15 19 19 18 22 27 29 31 32 30
Wind_Direction
221 219 216 215 213 213 216 216 212 212 209 206 209 212 214 215 214 213 214 215 215 214 211 208 206 206 209 212 214 215 217 219 220 222 226 228 229 233 236 237 233 228 217 196 209 221 214 204 321 335 291 293 282 266 269 246 237 239 243 232 232 241 215 187 176 129 138 139 145 168 162 143 148 165 162 141 127 133 140 138 151 171 164 130 136 156 170 171
223 220 217 215 213 213 214 213 210 210 209 206 206 209 213 215 216 213 213 215 216 214 212 210 208 209 211 212 215 217 220 224 230 234 233 230 231 232 231 230 225 225 217 199 203 214 207 191 29 342 313 291 272 252 255 235 209 214 228 241 233 234 287 45 83 86 111 148 155 167 172 158 158 168 164 168 159 146 148 161 165 165 158 149 153 163 174 177
226 220 217 216 213 211 211 211 209 208 209 206 205 207 210 214 216 214 212 214 215 215 213 211 209 210 211 212 215 216 220 224 234 238 234 229 230 227 221 219 214 221 220 205 200 197 202 197 43 332 319 288 270 241 228 216 202 224 233 259 243 184 73 51 79 79 92 140 151 159 180 174 157 166 170 181 170 165 179 172 169 171 171 168 167 175 181 179
228 224 216 211 209 209 210 211 209 207 208 207 204 204 208 211 214 215 214 213 214 215 214 212 210 209 210 212 213 214 216 225 243 243 236 227 224 216 208 204 204 216 221 205 189 178 201 215 250 303 310 286 273 253 225 208 198 207 212 238 296 318 77 58 80 90 100 133 148 153 172 163 148 162 176 187 175 177 202 193 186 186 186 182 176 184 188 184
224 226 214 208 207 208 208 208 207 205 206 207 205 203 205 209 212 215 214 213 213 213 213 212 210 209 209 208 208 211 211 225 262 250 239 225 217 210 203 196 191 203 215 203 185 179 200 217 269 299 298 283 281 265 240 224 213 217 237 240 345 348 53 75 92 103 107 129 141 145 158 147 142 159 177 194 203 163 190 201 198 193 196 194 187 191 192 190
222 225 215 211 210 207 205 204 205 204 204 207 207 205 205 208 211 213 214 214 212 212 211 210 209 208 205 204 206 206 202 204 308 274 233 218 213 210 209 207 199 197 210 203 183 181 198 211 280 276 249 271 288 267 258 236 212 229 254 224 22 14 64 95 113 110 106 126 137 147 156 147 144 162 187 207 215 131 142 170 178 186 196 199 194 194 194 196
217 222 216 213 209 205 202 201 202 203 203 206 208 207 205 207 210 212 214 213 211 210 209 207 206 204 200 200 202 196 200 218 257 336 228 203 207 209 209 208 204 200 202 198 181 179 197 219 251 247 238 254 276 260 261 247 198 218 262 198 95 61 90 122 135 123 109 111 130 155 157 151 165 178 195 210 191 135 130 149 159 168 182 189 192 194 199 204
209 215 213 211 209 204 201 200 201 202 200 202 206 204 202 205 208 210 212 211 210 208 205 203 201 198 196 196 192 185 205 220 235 304 223 188 196 201 199 193 194 198 191 189 183 178 192 224 237 239 238 232 260 259 252 266 207 229 266 143 125 97 111 124 138 137 123 116 119 145 149 145 176 176 187 204 192 172 179 159 158 155 166 183 192 194 201 206
204 209 209 208 207 202 199 199 199 199 195 193 198 198 196 201 205 207 210 209 207 206 201 198 196 192 193 193 186 187 217 217 220 283 204 183 187 190 191 184 183 184 176 179 182 177 189 217 232 238 247 254 269 271 229 220 250 242 230 126 126 115 126 121 125 138 133 145 132 142 147 125 172 176 205 214 205 198 200 182 165 158 165 182 196 200 204 208
202 206 209 207 206 199 195 196 194 191 187 187 192 195 194 197 203 205 206 206 204 202 197 192 190 188 187 184 178 194 225 217 213 247 190 182 183 183 188 185 181 175 163 168 179 181 184 197 222 251 265 275 282 280 226 194 281 272 159 111 114 110 122 131 121 138 135 147 161 175 148 106 162 186 241 212 196 200 201 190 179 169 173 182 198 208 207 210
202 205 208 207 207 202 195 193 190 186 183 184 189 194 195 194 200 204 204 203 200 196 192 187 184 184 183 180 179 196 219 219 214 216 163 178 183 182 184 184 184 177 165 168 177 183 180 190 220 260 265 278 293 286 259 219 269 267 136 105 117 117 112 144 128 145 144 144 177 190 100 99 118 181 223 187 183 199 202 197 197 193 190 186 193 205 207 208
203 205 207 206 205 201 195 192 189 184 182 183 186 193 194 193 198 201 201 198 195 192 187 184 182 180 179 182 194 200 205 217 212 208 175 167 184 188 188 185 185 180 173 177 180 180 187 203 223 247 252 269 300 291 280 240 244 198 170 129 143 154 152 170 147 162 170 152 169 153 49 143 177 213 217 190 187 196 194 198 203 200 200 197 196 201 206 205
203 203 205 204 201 197 191 189 187 183 181 181 184 190 193 192 196 199 197 194 191 189 185 182 181 176 173 185 203 203 206 217 209 209 199 162 176 191 194 191 192 189 185 192 193 188 199 214 216 236 257 265 295 308 307 261 229 200 209 220 156 181 214 174 146 165 166 149 169 144 33 225 218 215 209 195 195 192 185 191 199 199 195 200 205 205 210 207
201 200 201 200 198 194 187 183 183 181 179 179 182 189 190 189 193 194 193 191 188 187 184 180 177 174 174 190 201 200 205 208 202 207 208 194 175 184 193 196 198 196 193 203 208 199 205 213 211 229 259 255 266 300 311 280 234 202 211 229 177 169 197 169 152 164 153 158 177 137 97 250 233 193 188 186 193 187 182 186 193 200 195 198 207 210 216 215
199 197 198 194 190 187 183 180 180 177 176 177 181 185 186 187 189 187 188 188 185 185 181 175 175 170 176 202 204 200 201 200 197 198 204 205 196 184 186 192 198 194 187 199 213 214 210 210 212 224 254 247 237 266 287 242 247 225 203 218 197 186 167 159 166 175 164 150 180 151 223 258 3 139 171 182 189 185 184 186 188 196 198 200 206 211 216 220
197 195 197 191 184 182 179 177 176 174 173 175 179 181 181 185 185 180 181 180 178 179 173 171 172 162 166 200 201 203 203 203 199 184 190 199 198 191 186 189 195 192 180 188 209 221 215 206 210 218 228 223 202 223 259 226 229 232 213 196 191 200 166 157 215 199 171 124 185 223 249 244 119 155 177 183 190 193 193 196 192 194 200 203 209 215 217 219
195 193 195 191 184 182 177 174 173 171 172 173 173 174 173 177 178 173 172 171 169 168 166 168 167 157 181 201 191 198 201 204 200 179 177 189 191 190 188 185 187 190 187 192 207 212 205 196 199 213 210 196 174 187 230 222 209 220 218 218 205 198 171 158 251 214 182 149 194 220 244 257 191 168 187 193 195 197 200 206 204 198 197 203 211 218 222 220
194 191 192 190 185 181 175 173 171 169 170 169 167 167 168 171 172 168 163 158 151 147 153 164 162 153 223 207 196 193 196 200 197 181 171 179 187 189 188 185 181 183 183 188 200 195 194 188 184 200 199 194 190 190 214 212 194 196 188 231 237 204 185 169 162 180 178 201 212 186 222 258 226 170 190 200 194 196 207 211 211 209 203 204 210 215 223 225
193 191 190 188 184 179 174 169 168 168 168 166 163 161 159 159 160 162 158 150 147 145 165 178 173 165 248 202 198 186 190 197 192 183 176 174 177 175 176 182 177 171 163 165 187 185 182 174 179 204 201 197 202 201 219 222 213 204 184 205 222 200 189 156 135 172 158 188 218 190 207 240 239 205 191 196 192 193 205 209 208 211 211 210 212 216 221 226
190 190 187 185 183 177 172 168 167 169 167 163 159 153 149 150 147 156 161 163 166 166 188 185 178 176 36 174 180 166 171 188 189 181 181 178 171 164 164 166 165 165 162 158 175 183 180 175 193 204 198 199 205 210 225 241 268 243 195 200 207 181 174 103 81 261 148 167 217 219 223 236 240 234 201 191 191 196 200 201 203 206 211 212 213 217 220 226
186 185 183 183 180 173 170 170 169 170 169 165 159 155 158 158 152 175 170 176 180 172 203 187 178 168 113 155 166 161 155 168 181 179 181 180 169 159 160 159 156 167 179 160 146 169 182 198 201 195 206 206 201 212 232 251 300 296 210 186 208 196 167 63 72 202 190 101 223 224 236 247 241 248 224 184 180 201 202 196 203 208 213 217 218 221 225 231
182 181 180 180 177 171 170 170 170 170 168 166 164 165 170 164 161 186 169 164 186 182 283 184 178 164 148 159 166 165 158 153 162 174 176 171 167 162 161 167 167 167 180 166 140 154 189 216 195 190 210 216 201 206 222 246 299 314 318 160 216 199 126 71 48 126 157 154 248 216 234 255 249 251 252 204 194 206 204 205 213 216 218 222 223 227 228 230
181 178 177 175 173 170 168 168 168 169 168 169 170 171 172 167 306 183 160 118 174 190 182 174 175 158 150 160 166 162 160 155 154 171 174 166 169 174 166 173 182 170 182 177 158 166 191 213 194 188 199 197 192 191 183 189 269 302 311 298 220 159 127 193 168 126 340 160 68 10 304 268 264 258 254 235 231 226 216 218 221 222 225 226 225 228 229 228
179 177 176 173 171 169 166 166 166 169 172 174 175 174 173 171 152 161 148 99 144 164 167 170 167 153 153 159 167 165 165 164 162 172 174 167 170 174 169 175 181 178 190 180 170 180 183 181 166 167 182 176 162 171 168 174 225 254 253 267 288 171 126 80 138 138 11 0 124 15 324 283 242 233 242 233 232 233 226 221 219 220 224 225 224 225 228 229
177 177 175 171 169 166 164 164 167 171 174 175 176 173 173 170 152 151 139 99 140 119 158 171 169 160 158 159 166 166 164 168 173 177 175 171 170 166 169 182 184 183 186 180 177 185 191 189 159 151 170 175 165 179 182 170 204 254 229 212 294 156 118 106 131 133 67 282 225 116 303 283 236 215 229 222 217 225 221 214 211 214 216 217 219 221 223 225
176 176 173 169 167 163 161 165 170 171 171 176 173 163 169 169 154 149 138 97 156 142 152 173 178 170 159 160 164 161 161 167 174 180 176 173 174 167 163 180 189 192 179 178 192 185 165 150 159 165 166 168 174 200 194 168 183 240 245 223 140 99 112 128 152 151 134 227 280 113 177 264 287 244 239 208 191 215 212 206 210 212 214 217 221 223 222 222
175 173 169 167 166 164 164 166 169 170 170 175 168 155 166 170 159 153 141 98 181 160 151 168 175 173 164 162 161 156 162 152 152 177 177 172 176 177 174 175 179 195 171 154 197 192 103 105 114 153 150 163 180 200 195 171 178 218 291 306 127 120 131 147 157 182 185 133 339 327 169 264 291 278 280 170 174 216 211 211 221 217 217 222 226 229 226 226
173 170 168 168 169 169 168 166 168 172 174 170 161 159 169 171 169 165 145 154 161 145 153 164 164 170 164 163 166 156 136 151 145 180 180 173 174 179 188 178 169 174 160 155 189 213 90 154 173 151 143 174 181 193 193 167 170 229 272 355 80 124 141 149 151 184 41 61 299 262 180 313 269 252 279 136 180 238 229 217 221 216 217 221 226 229 229 229
171 169 169 169 169 169 170 169 171 175 174 166 160 166 173 174 174 166 153 171 143 131 157 156 152 165 161 163 178 167 141 162 158 163 178 177 173 174 182 179 165 121 89 119 160 221 9 171 172 155 160 178 158 34 297 168 169 204 175 57 50 59 86 129 147 141 76 44 244 233 190 197 278 252 225 193 211 233 234 232 224 211 209 210 211 213 217 221
169 169 170 168 167 168 170 171 174 175 170 165 164 169 173 173 166 156 185 180 142 149 156 152 158 166 162 161 182 178 158 168 143 136 167 177 169 169 166 169 157 119 72 58 90 100 347 112 80 117 156 145 127 72 9 120 136 141 131 79 64 45 43 46 95 109 98 254 241 229 199 191 282 261 204 187 214 216 219 236 223 175 179 184 189 196 204 212
169 169 170 169 168 170 168 166 171 171 164 162 166 169 167 163 175 173 170 148 127 145 145 148 159 164 167 167 177 182 169 131 138 143 160 174 168 171 167 167 149 124 130 86 89 76 51 81 55 63 111 124 116 76 23 59 118 115 116 113 82 30 34 23 345 101 168 246 260 303 302 190 235 257 233 194 183 178 181 188 169 142 144 158 173 187 201 210
170 170 170 170 168 170 168 165 169 166 161 162 164 165 160 147 206 201 148 143 144 164 166 162 163 166 174 171 166 176 162 128 157 159 159 167 174 181 182 181 150 137 170 158 126 103 82 93 141 81 144 188 144 97 45 10 44 101 128 130 113 84 72 32 248 195 220 244 268 315 332 259 230 254 264 263 240 183 175 149 160 161 150 155 167 180 200 212
169 169 168 169 167 167 169 167 167 165 165 166 162 160 164 160 186 189 153 163 165 163 168 165 163 164 168 167 161 168 158 144 168 168 161 164 167 183 197 191 169 171 175 149 131 127 104 349 169 113 285 220 188 138 139 240 220 164 151 142 143 144 137 211 208 203 237 261 295 290 293 273 266 266 249 253 253 183 162 143 147 154 153 157 167 182 206 220
167 167 165 166 165 164 170 170 167 167 167 164 158 160 179 171 184 186 170 176 158 151 156 156 154 157 165 169 164 166 158 147 166 166 160 165 169 185 200 192 182 183 149 140 158 166 166 235 198 150 160 193 193 177 155 147 161 188 163 142 165 171 166 192 188 194 209 238 321 305 279 201 211 259 241 229 194 142 149 157 156 155 160 169 177 192 208 221
165 165 163 163 161 163 171 170 169 170 165 158 156 176 181 177 183 181 171 159 150 148 148 150 150 154 168 170 159 168 169 154 167 167 164 175 182 184 190 190 186 182 160 156 174 172 175 208 257 332 327 168 173 254 138 122 140 217 146 122 194 204 153 147 184 191 160 115 293 246 256 220 206 274 268 177 134 148 183 193 185 177 183 197 210 202 200 212
162 162 162 161 160 162 170 171 171 170 163 154 160 195 190 191 179 169 164 152 155 150 143 149 155 156 165 164 161 171 173 158 167 171 175 184 191 187 187 191 186 186 181 160 149 161 169 206 323 354 2 39 122 317 347 108 166 184 139 158 202 163 113 119 230 300 107 183 237 182 256 276 270 286 275 159 143 207 206 212 212 200 198 207 212 194 193 203
159 160 163 164 165 166 171 175 172 168 164 160 178 189 191 205 179 154 146 139 148 148 143 152 165 165 166 166 170 170 160 157 169 173 176 182 196 190 187 193 187 192 192 159 156 193 148 114 329 27 63 357 349 51 37 9 45 122 153 192 181 101 79 123 213 333 79 237 237 173 212 250 235 266 302 119 189 232 218 214 216 206 202 202 198 192 193 195
158 160 163 168 172 171 173 176 171 165 164 177 200 188 182 192 192 152 144 142 147 152 152 157 165 173 172 165 166 168 160 163 175 178 173 180 203 187 183 191 188 194 192 152 140 199 134 102 341 359 67 278 332 70 137 344 14 114 162 158 114 148 225 156 185 211 186 224 265 234 223 230 205 213 259 222 215 222 216 200 190 194 199 195 188 188 190 188
156 157 161 173 176 173 174 174 169 166 170 206 199 192 170 161 176 153 147 146 148 154 158 158 159 173 176 164 157 164 167 169 171 173 174 183 209 185 181 183 181 191 190 157 139 177 137 117 216 317 343 149 359 308 183 202 6 65 56 54 79 160 176 167 199 206 171 198 257 281 256 248 231 214 222 225 215 202 192 190 196 198 196 193 189 188 187 186
156 153 162 176 177 174 170 167 165 171 196 202 188 182 137 136 162 154 149 147 148 160 165 161 162 165 165 161 156 161 170 165 165 179 186 173 180 191 187 179 168 179 176 139 125 150 115 95 137 179 346 123 158 238 196 183 176 157 108 126 143 138 114 107 258 207 138 174 238 265 279 264 252 235 218 202 177 157 161 179 203 198 188 189 190 188 186 185
156 149 163 176 178 169 160 157 167 188 202 196 192 177 151 141 148 153 151 151 150 150 162 162 167 164 157 159 159 160 165 159 168 186 186 170 174 208 199 174 158 161 148 110 123 154 104 89 120 135 158 169 205 312 341 225 183 172 175 174 178 168 128 133 259 224 136 164 203 204 258 270 266 328 22 89 104 89 99 148 171 170 174 182 185 185 185 186
156 145 165 176 177 165 156 155 186 193 188 189 184 129 150 147 144 147 150 153 149 87 149 161 168 162 158 164 160 159 163 161 174 184 185 182 180 197 195 170 159 159 154 134 151 155 96 93 105 119 146 180 256 322 23 276 205 120 219 184 161 163 156 169 211 221 198 208 156 160 263 271 271 354 22 20 64 105 124 134 143 153 168 177 180 181 182 185
151 124 155 174 173 163 160 164 184 185 208 182 132 90 142 147 139 144 147 151 150 136 147 157 168 165 164 164 157 162 168 164 177 182 178 173 172 199 191 167 158 158 153 137 154 151 111 102 107 94 48 355 301 283 249 267 195 149 249 204 160 179 185 178 186 173 173 192 156 174 256 263 282 336 356 319 315 196 194 168 153 155 164 172 176 180 183 185
129 122 144 169 171 166 167 176 175 182 196 166 132 109 151 121 132 153 157 152 151 158 149 150 165 163 160 157 155 167 173 167 180 184 173 160 166 314 183 162 158 159 166 170 175 171 157 135 121 112 90 14 349 305 277 261 215 201 233 194 158 143 136 136 150 120 185 213 176 174 239 252 278 318 327 287 270 248 229 198 176 164 163 174 174 177 183 180
121 119 139 160 170 178 191 206 182 183 178 159 148 159 151 75 84 138 146 140 120 140 139 137 150 139 123 135 140 167 178 170 163 171 159 140 145 342 163 163 163 164 173 171 164 159 155 152 143 140 158 177 196 213 206 186 182 308 5 158 173 154 140 146 171 164 232 227 181 183 239 259 296 321 309 284 266 248 227 201 193 177 168 178 175 172 173 169
134 122 127 152 177 196 230 262 212 180 173 165 159 168 154 129 89 69 114 123 40 118 117 107 136 128 128 145 141 169 183 161 104 153 149 126 131 333 154 158 159 152 145 156 154 145 120 159 170 178 188 193 205 204 157 129 144 190 200 186 189 194 182 163 142 186 216 214 201 223 235 254 278 275 262 267 253 237 222 194 193 187 178 179 175 169 166 164
151 154 151 157 181 201 230 249 222 182 176 174 168 170 158 144 138 68 76 94 180 139 98 81 148 148 160 161 154 171 176 140 105 148 144 118 105 68 101 115 124 128 134 152 153 139 98 181 184 199 212 200 181 180 159 150 169 193 195 193 194 193 185 176 191 212 204 188 233 239 226 238 246 220 220 247 235 221 214 197 197 197 186 178 175 171 170 170
159 168 170 167 167 186 205 207 201 182 176 178 170 162 157 150 156 159 106 51 164 168 111 112 176 174 169 166 159 163 166 146 142 158 144 126 121 102 72 45 59 102 121 147 154 129 121 180 183 193 217 210 79 100 156 170 189 197 194 198 198 190 184 186 208 220 204 192 233 235 224 234 240 213 207 227 217 211 214 208 205 201 188 180 179 180 179 177
143 151 171 174 175 181 168 178 182 173 174 179 176 167 166 164 165 163 129 110 156 211 179 160 184 182 170 168 159 158 171 170 172 173 140 125 136 123 100 58 54 52 81 125 154 60 120 179 172 168 204 226 137 116 148 174 199 214 206 202 189 187 193 198 213 223 216 215 231 236 237 242 236 199 207 225 224 218 210 199 200 201 193 185 184 188 186 180
150 152 168 178 184 159 158 163 165 164 175 182 183 180 175 172 168 157 139 158 168 191 191 172 176 176 169 171 168 175 189 180 172 169 143 131 150 156 150 157 145 75 56 116 142 2 142 192 163 145 188 240 201 171 169 174 194 220 221 207 177 180 198 209 219 226 222 229 240 246 258 262 241 201 209 219 212 196 178 186 202 207 198 188 187 193 191 185
157 163 169 169 144 156 165 167 164 164 175 186 188 184 179 179 171 153 123 158 165 176 185 169 163 164 163 174 182 189 188 178 166 166 159 154 165 168 160 156 148 139 139 154 153 136 156 182 134 129 182 234 218 205 190 159 147 255 245 218 187 182 195 208 217 221 214 225 243 250 258 258 242 203 203 204 184 175 183 198 206 207 198 192 192 196 195 191
141 146 163 163 130 159 168 166 169 171 178 187 185 175 176 179 167 151 132 33 90 155 168 158 149 151 163 182 193 189 175 163 152 158 158 151 153 150 139 151 154 154 159 159 152 152 151 152 144 151 190 233 220 193 172 107 55 283 247 216 200 198 201 208 220 224 215 213 225 232 238 245 233 183 199 210 184 184 198 204 207 207 200 197 198 199 199 198